| time (UTC) | temp F | wind direction | speed knots | gust knots | rain 1hr in | rain 24hr in | rain mn in | humidity % | barometer mb |
| 20260510044104 | 60 | 50 | 3.5 | 7.8 | 0.00 | 0.00 | 0.00 | 75 | 1027.2 |
| 20260510043604 | 59 | 68 | 1.7 | 7.8 | 0.00 | 0.00 | 0.00 | 75 | 1027.2 |
| 20260510043104 | 60 | 77 | 3.5 | 7.8 | 0.00 | 0.00 | 0.00 | 74 | 1027.3 |
| 20260510042604 | 60 | 59 | 5.2 | 7.8 | 0.00 | 0.00 | 0.00 | 73 | 1027.3 |
| 20260510042104 | 60 | 84 | 1.7 | 7.8 | 0.00 | 0.00 | 0.00 | 76 | 1027.3 |
| 20260510041604 | 59 | 67 | 4.3 | 7.8 | 0.00 | 0.00 | 0.00 | 75 | 1027.3 |
| 20260510041104 | 59 | 75 | 3.5 | 6.1 | 0.00 | 0.00 | 0.00 | 75 | 1027.3 |
| 20260510040604 | 59 | 71 | 3.5 | 7.8 | 0.00 | 0.00 | 0.00 | 75 | 1027.3 |
| 20260510040104 | 60 | 44 | 2.6 | 7.8 | 0.00 | 0.00 | 0.00 | 74 | 1027.3 |
| 20260510035604 | 60 | 60 | 5.2 | 7.8 | 0.00 | 0.00 | 0.00 | 73 | 1027.3 |
| 20260510035104 | 60 | 71 | 2.6 | 7.8 | 0.00 | 0.00 | 0.00 | 74 | 1027.3 |
| 20260510034604 | 60 | 42 | 1.7 | 7.0 | 0.00 | 0.00 | 0.00 | 73 | 1027.3 |
| 20260510034103 | 59 | 355 | 3.5 | 8.7 | 0.00 | 0.00 | 0.00 | 75 | 1027.3 |
| 20260510033604 | 59 | 69 | 6.1 | 8.7 | 0.00 | 0.00 | 0.00 | 75 | 1027.3 |
| 20260510033104 | 59 | 68 | 3.5 | 7.0 | 0.00 | 0.00 | 0.00 | 76 | 1027.2 |
| 20260510032104 | 57 | 63 | 3.5 | 10.4 | 0.00 | 0.00 | 0.00 | 77 | 1027.3 |
| 20260510031604 | 57 | 81 | 2.6 | 10.4 | 0.00 | 0.00 | 0.00 | 77 | 1027.3 |
| 20260510031104 | 58 | 76 | 6.1 | 7.8 | 0.00 | 0.00 | 0.00 | 75 | 1027.3 |
| 20260510030604 | 58 | 72 | 5.2 | 7.8 | 0.00 | 0.00 | 0.00 | 74 | 1027.4 |
| 20260510030104 | 59 | 65 | 4.3 | 10.4 | 0.00 | 0.00 | 0.00 | 76 | 1027.4 |
| 20260510025604 | 59 | 51 | 4.3 | 10.4 | 0.00 | 0.00 | 0.00 | 75 | 1027.5 |
| 20260510024604 | 59 | 80 | 2.6 | 7.8 | 0.00 | 0.00 | 0.00 | 76 | 1027.5 |
| 20260510024103 | 59 | 63 | 2.6 | 8.7 | 0.00 | 0.00 | 0.00 | 76 | 1027.6 |
| 20260510023604 | 59 | 55 | 4.3 | 8.7 | 0.00 | 0.00 | 0.00 | 75 | 1027.6 |
| 20260510023104 | 59 | 54 | 2.6 | 7.8 | 0.00 | 0.00 | 0.00 | 76 | 1027.7 |
| 20260510022604 | 58 | 357 | 1.7 | 4.3 | 0.00 | 0.00 | 0.00 | 78 | 1027.7 |
| 20260510022104 | 58 | 66 | 3.5 | 5.2 | 0.00 | 0.00 | 0.00 | 77 | 1027.8 |
| 20260510021104 | 58 | 74 | 2.6 | 7.0 | 0.00 | 0.00 | 0.00 | 77 | 1027.9 |
| 20260510020604 | 58 | 70 | 4.3 | 7.8 | 0.00 | 0.00 | 0.00 | 76 | 1027.9 |
| 20260510020104 | 58 | 54 | 2.6 | 7.8 | 0.00 | 0.00 | 0.00 | 76 | 1028.0 |
| 20260510015105 | 58 | 59 | 5.2 | 7.8 | 0.00 | 0.00 | 0.00 | 77 | 1028.1 |
| 20260510014605 | 57 | 40 | 3.5 | 8.7 | 0.00 | 0.00 | 0.00 | 79 | 1028.2 |
| 20260510014104 | 57 | 74 | 6.1 | 10.4 | 0.00 | 0.00 | 0.00 | 78 | 1028.2 |
| 20260510013604 | 57 | 64 | 5.2 | 10.4 | 0.00 | 0.00 | 0.00 | 79 | 1028.3 |
| 20260510012604 | 56 | 81 | 5.2 | 7.8 | 0.00 | 0.00 | 0.00 | 79 | 1028.3 |
| 20260510012105 | 56 | 65 | 1.7 | 7.8 | 0.00 | 0.00 | 0.00 | 80 | 1028.4 |
| 20260510011604 | 56 | 68 | 2.6 | 7.8 | 0.00 | 0.00 | 0.00 | 80 | 1028.4 |
| 20260510011104 | 56 | 67 | 4.3 | 7.8 | 0.00 | 0.00 | 0.00 | 80 | 1028.4 |
| 20260510010105 | 55 | 62 | 5.2 | 8.7 | 0.00 | 0.00 | 0.00 | 81 | 1028.5 |
| 20260510005604 | 55 | 56 | 3.5 | 8.7 | 0.00 | 0.00 | 0.00 | 81 | 1028.5 |
| 20260510005104 | 55 | 74 | 4.3 | 7.8 | 0.00 | 0.00 | 0.00 | 81 | 1028.6 |
| 20260510004604 | 55 | 60 | 6.1 | 7.8 | 0.00 | 0.00 | 0.00 | 81 | 1028.6 |
| 20260510004105 | 55 | 65 | 3.5 | 8.7 | 0.00 | 0.00 | 0.00 | 81 | 1028.6 |
| 20260510003605 | 55 | 86 | 5.2 | 8.7 | 0.00 | 0.00 | 0.00 | 82 | 1028.5 |
| 20260510003104 | 55 | 79 | 4.3 | 7.8 | 0.00 | 0.00 | 0.00 | 81 | 1028.6 |
| 20260510002604 | 56 | 71 | 2.6 | 7.8 | 0.00 | 0.00 | 0.00 | 80 | 1028.6 |
| 20260510002104 | 56 | 50 | 1.7 | 7.8 | 0.00 | 0.00 | 0.00 | 80 | 1028.6 |
| 20260510001604 | 56 | 41 | 1.7 | 7.8 | 0.00 | 0.00 | 0.00 | 81 | 1028.6 |
| 20260510000604 | 55 | 57 | 1.7 | 8.7 | 0.00 | 0.00 | 0.00 | 81 | 1028.5 |
| 20260509235604 | 55 | 70 | 2.6 | 6.1 | 0.00 | 0.00 | 0.00 | 83 | 1028.4 |
| 20260509235104 | 54 | 75 | 4.3 | 11.3 | 0.00 | 0.00 | 0.00 | 83 | 1028.4 |
| 20260509234604 | 53 | 76 | 2.6 | 11.3 | 0.00 | 0.00 | 0.00 | 83 | 1028.4 |
| 20260509234104 | 53 | 73 | 4.3 | 7.0 | 0.00 | 0.00 | 0.00 | 84 | 1028.3 |
| 20260509233104 | 53 | 77 | 7.0 | 8.7 | 0.00 | 0.00 | 0.00 | 83 | 1028.2 |
| 20260509232104 | 52 | 118 | 1.7 | 10.4 | 0.00 | 0.00 | 0.00 | 84 | 1028.3 |
| 20260509230604 | 52 | 65 | 6.1 | 10.4 | 0.00 | 0.00 | 0.00 | 85 | 1028.2 |
| 20260509230104 | 52 | 74 | 6.1 | 8.7 | 0.00 | 0.00 | 0.00 | 84 | 1028.2 |
| 20260509224604 | 51 | 67 | 3.5 | 7.0 | 0.00 | 0.00 | 0.00 | 84 | 1028.0 |
| 20260509224105 | 51 | 81 | 0.9 | 7.0 | 0.00 | 0.00 | 0.00 | 84 | 1027.9 |
| 20260509223605 | 51 | 75 | 2.6 | 7.8 | 0.00 | 0.00 | 0.00 | 84 | 1027.9 |
| 20260509222604 | 50 | 72 | 2.6 | 5.2 | 0.00 | 0.00 | 0.00 | 84 | 1027.8 |
| 20260509222104 | 50 | 64 | 0.9 | 4.3 | 0.00 | 0.00 | 0.00 | 85 | 1027.8 |
| 20260509221604 | 50 | 69 | 0.9 | 2.6 | 0.00 | 0.00 | 0.00 | 84 | 1027.7 |
| 20260509221104 | 49 | 68 | 0.9 | 2.6 | 0.00 | 0.00 | 0.00 | 85 | 1027.7 |
| 20260509220605 | 49 | 67 | 0.9 | 2.6 | 0.00 | 0.00 | 0.00 | 85 | 1027.7 |
| 20260509215604 | 48 | 77 | 0.9 | 2.6 | 0.00 | 0.00 | 0.00 | 87 | 1027.6 |
| 20260509215104 | 48 | 97 | 0.0 | 4.3 | 0.00 | 0.00 | 0.00 | 87 | 1027.6 |
| 20260509214604 | 48 | 97 | 1.7 | 4.3 | 0.00 | 0.00 | 0.00 | 87 | 1027.6 |
| 20260509214105 | 47 | 169 | 0.0 | 0.0 | 0.00 | 0.00 | 0.00 | 87 | 1027.5 |
| 20260509213605 | 47 | 169 | 0.0 | 0.0 | 0.00 | 0.00 | 0.00 | 87 | 1027.4 |
| 20260509213104 | 47 | 169 | 0.0 | 0.0 | 0.00 | 0.00 | 0.00 | 87 | 1027.4 |
| 20260509212604 | 47 | 169 | 0.0 | 0.0 | 0.00 | 0.00 | 0.00 | 87 | 1027.4 |
| 20260509212104 | 47 | 169 | 0.0 | 0.0 | 0.00 | 0.00 | 0.00 | 87 | 1027.3 |
| 20260509211604 | 47 | 169 | 0.0 | 0.0 | 0.00 | 0.00 | 0.00 | 87 | 1027.2 |
| 20260509211104 | 47 | 169 | 0.0 | 0.0 | 0.00 | 0.00 | 0.00 | 87 | 1027.2 |
| 20260509210604 | 47 | 169 | 0.0 | 0.0 | 0.00 | 0.00 | 0.00 | 87 | 1027.2 |
| 20260509210104 | 47 | 169 | 0.0 | 0.0 | 0.00 | 0.00 | 0.00 | 87 | 1027.1 |
| 20260509205604 | 47 | 169 | 0.0 | 0.0 | 0.00 | 0.00 | 0.00 | 87 | 1027.1 |
| 20260509204604 | 47 | 169 | 0.0 | 0.0 | 0.00 | 0.00 | 0.00 | 87 | 1026.9 |
| 20260509204105 | 47 | 169 | 0.0 | 0.0 | 0.00 | 0.00 | 0.00 | 87 | 1026.9 |
| 20260509203604 | 47 | 169 | 0.0 | 0.0 | 0.00 | 0.00 | 0.00 | 87 | 1026.8 |
| 20260509202604 | 47 | 169 | 0.0 | 0.0 | 0.00 | 0.00 | 0.00 | 87 | 1026.6 |
| 20260509202104 | 46 | 169 | 0.0 | 0.0 | 0.00 | 0.00 | 0.00 | 87 | 1026.5 |
| 20260509201604 | 46 | 169 | 0.0 | 0.0 | 0.00 | 0.00 | 0.00 | 87 | 1026.5 |
| 20260509201104 | 46 | 169 | 0.0 | 0.0 | 0.00 | 0.00 | 0.00 | 87 | 1026.4 |
| 20260509200605 | 46 | 169 | 0.0 | 0.0 | 0.00 | 0.00 | 0.00 | 87 | 1026.4 |
| 20260509200104 | 46 | 169 | 0.0 | 0.0 | 0.00 | 0.00 | 0.00 | 87 | 1026.4 |
| 20260509195604 | 46 | 169 | 0.0 | 0.9 | 0.00 | 0.00 | 0.00 | 87 | 1026.4 |
| 20260509195104 | 46 | 169 | 0.0 | 0.9 | 0.00 | 0.00 | 0.00 | 87 | 1026.3 |
| 20260509194604 | 46 | 169 | 0.0 | 0.9 | 0.00 | 0.00 | 0.00 | 87 | 1026.2 |
| 20260509194104 | 46 | 169 | 0.0 | 0.0 | 0.00 | 0.00 | 0.00 | 87 | 1026.2 |
| 20260509193604 | 46 | 169 | 0.0 | 0.0 | 0.00 | 0.00 | 0.00 | 87 | 1026.1 |
| 20260509193104 | 46 | 169 | 0.0 | 0.0 | 0.00 | 0.00 | 0.00 | 87 | 1026.0 |
| 20260509192604 | 46 | 169 | 0.0 | 0.0 | 0.00 | 0.00 | 0.00 | 87 | 1026.0 |
| 20260509192104 | 46 | 169 | 0.0 | 0.0 | 0.00 | 0.00 | 0.00 | 87 | 1025.9 |
| 20260509191604 | 47 | 169 | 0.0 | 0.9 | 0.00 | 0.00 | 0.00 | 87 | 1025.9 |
| 20260509191104 | 47 | 169 | 0.0 | 0.9 | 0.00 | 0.00 | 0.00 | 87 | 1025.9 |
| 20260509190604 | 47 | 169 | 0.0 | 0.9 | 0.00 | 0.00 | 0.00 | 87 | 1025.8 |
| 20260509190104 | 47 | 169 | 0.0 | 0.9 | 0.00 | 0.00 | 0.00 | 87 | 1025.8 |
| 20260509185105 | 47 | 169 | 0.9 | 1.7 | 0.00 | 0.00 | 0.00 | 87 | 1025.7 |
| 20260509184603 | 47 | 169 | 0.0 | 0.9 | 0.00 | 0.00 | 0.00 | 87 | 1025.7 |
| 20260509184104 | 47 | 169 | 0.0 | 0.9 | 0.00 | 0.00 | 0.00 | 87 | 1025.7 |
| 20260509183604 | 47 | 169 | 0.0 | 0.9 | 0.00 | 0.00 | 0.00 | 87 | 1025.6 |
| 20260509183104 | 47 | 169 | 0.0 | 0.9 | 0.00 | 0.00 | 0.00 | 87 | 1025.5 |
| 20260509182604 | 47 | 169 | 0.0 | 0.9 | 0.00 | 0.00 | 0.00 | 87 | 1025.5 |
| 20260509182104 | 47 | 169 | 0.0 | 0.9 | 0.00 | 0.00 | 0.00 | 87 | 1025.4 |
| 20260509181604 | 47 | 169 | 0.0 | 0.9 | 0.00 | 0.00 | 0.00 | 87 | 1025.4 |
| 20260509181104 | 47 | 169 | 0.0 | 0.0 | 0.00 | 0.00 | 0.00 | 87 | 1025.4 |
| 20260509180604 | 47 | 169 | 0.0 | 0.0 | 0.00 | 0.00 | 0.00 | 87 | 1025.4 |
| 20260509180104 | 47 | 169 | 0.0 | 0.0 | 0.00 | 0.00 | 0.00 | 87 | 1025.4 |
| 20260509175604 | 47 | 169 | 0.0 | 0.0 | 0.00 | 0.00 | 0.00 | 87 | 1025.3 |
| 20260509175104 | 47 | 169 | 0.0 | 0.0 | 0.00 | 0.00 | 0.00 | 87 | 1025.2 |
| 20260509174104 | 47 | 169 | 0.0 | 1.7 | 0.00 | 0.00 | 0.00 | 87 | 1025.2 |
| 20260509173104 | 47 | 169 | 1.7 | 1.7 | 0.00 | 0.00 | 0.00 | 88 | 1025.2 |
| 20260509172604 | 47 | 169 | 0.0 | 0.0 | 0.00 | 0.00 | 0.00 | 88 | 1025.2 |
| 20260509172104 | 47 | 169 | 0.0 | 0.9 | 0.00 | 0.00 | 0.00 | 88 | 1025.2 |
| 20260509171604 | 47 | 169 | 0.0 | 1.7 | 0.00 | 0.00 | 0.00 | 88 | 1025.2 |
| 20260509171104 | 47 | 169 | 0.9 | 1.7 | 0.00 | 0.00 | 0.00 | 87 | 1025.2 |
| 20260509170604 | 47 | 169 | 0.0 | 0.0 | 0.00 | 0.00 | 0.00 | 87 | 1025.3 |
| 20260509165604 | 47 | 169 | 0.0 | 0.0 | 0.00 | 0.00 | 0.00 | 87 | 1025.3 |
| 20260509165104 | 47 | 169 | 0.0 | 1.7 | 0.00 | 0.00 | 0.00 | 87 | 1025.3 |
| 20260509164604 | 47 | 169 | 0.0 | 1.7 | 0.00 | 0.00 | 0.00 | 88 | 1025.3 |
| 20260509164104 | 47 | 169 | 0.0 | 1.7 | 0.00 | 0.00 | 0.00 | 88 | 1025.2 |
| 20260509163604 | 47 | 169 | 0.0 | 0.9 | 0.00 | 0.00 | 0.00 | 88 | 1025.2 |
| 20260509163104 | 47 | 169 | 0.0 | 0.9 | 0.00 | 0.00 | 0.00 | 88 | 1025.3 |
| 20260509162604 | 47 | 169 | 0.0 | 0.9 | 0.00 | 0.00 | 0.00 | 88 | 1025.3 |
| 20260509161104 | 47 | 169 | 0.0 | 1.7 | 0.00 | 0.00 | 0.00 | 90 | 1025.3 |
| 20260509160104 | 47 | 169 | 1.7 | 1.7 | 0.00 | 0.00 | 0.00 | 90 | 1025.3 |
| 20260509155604 | 47 | 169 | 1.7 | 1.7 | 0.00 | 0.00 | 0.00 | 89 | 1025.3 |
| 20260509155104 | 47 | 169 | 1.7 | 1.7 | 0.00 | 0.00 | 0.00 | 89 | 1025.3 |
| 20260509154604 | 48 | 169 | 1.7 | 1.7 | 0.00 | 0.00 | 0.00 | 89 | 1025.2 |
| 20260509154104 | 48 | 169 | 1.7 | 1.7 | 0.00 | 0.00 | 0.00 | 88 | 1025.3 |
| 20260509153604 | 48 | 169 | 1.7 | 2.6 | 0.00 | 0.00 | 0.00 | 88 | 1025.4 |
| 20260509153104 | 48 | 169 | 1.7 | 2.6 | 0.00 | 0.00 | 0.00 | 89 | 1025.4 |
| 20260509152104 | 47 | 166 | 2.6 | 2.6 | 0.00 | 0.00 | 0.00 | 90 | 1025.4 |
| 20260509145604 | 47 | 166 | 1.7 | 2.6 | 0.00 | 0.00 | 0.00 | 90 | 1025.4 |
| 20260509145104 | 47 | 166 | 1.7 | 2.6 | 0.00 | 0.00 | 0.00 | 90 | 1025.3 |
| 20260509144104 | 47 | 158 | 1.7 | 2.6 | 0.00 | 0.00 | 0.00 | 90 | 1025.4 |
| 20260509143104 | 47 | 158 | 1.7 | 2.6 | 0.00 | 0.00 | 0.00 | 90 | 1025.4 |
| 20260509142104 | 47 | 158 | 1.7 | 2.6 | 0.00 | 0.00 | 0.00 | 89 | 1025.4 |
| 20260509141604 | 47 | 158 | 1.7 | 2.6 | 0.00 | 0.00 | 0.00 | 89 | 1025.4 |
| 20260509141105 | 47 | 149 | 2.6 | 2.6 | 0.00 | 0.00 | 0.00 | 89 | 1025.3 |
| 20260509140604 | 47 | 136 | 1.7 | 2.6 | 0.00 | 0.00 | 0.00 | 89 | 1025.4 |
| 20260509140105 | 47 | 134 | 1.7 | 2.6 | 0.00 | 0.00 | 0.00 | 89 | 1025.4 |
| 20260509135605 | 47 | 134 | 2.6 | 2.6 | 0.00 | 0.00 | 0.00 | 90 | 1025.4 |
| 20260509135105 | 47 | 134 | 2.6 | 2.6 | 0.00 | 0.00 | 0.00 | 89 | 1025.4 |
| 20260509134605 | 47 | 134 | 1.7 | 2.6 | 0.00 | 0.00 | 0.00 | 89 | 1025.4 |
| 20260509134104 | 47 | 134 | 1.7 | 4.3 | 0.00 | 0.00 | 0.00 | 88 | 1025.4 |
| 20260509133604 | 48 | 134 | 2.6 | 4.3 | 0.00 | 0.00 | 0.00 | 88 | 1025.4 |
| 20260509133104 | 48 | 131 | 1.7 | 4.3 | 0.00 | 0.00 | 0.00 | 88 | 1025.4 |
| 20260509132605 | 48 | 131 | 2.6 | 4.3 | 0.00 | 0.00 | 0.00 | 89 | 1025.4 |
| 20260509132105 | 47 | 68 | 0.0 | 0.0 | 0.00 | 0.00 | 0.00 | 90 | 1025.4 |
| 20260509131604 | 47 | 63 | 0.0 | 0.0 | 0.00 | 0.00 | 0.00 | 90 | 1025.4 |
| 20260509131104 | 47 | 63 | 0.0 | 0.0 | 0.00 | 0.00 | 0.00 | 91 | 1025.4 |
| 20260509130604 | 47 | 63 | 0.0 | 0.0 | 0.00 | 0.00 | 0.00 | 92 | 1025.4 |
| 20260509130104 | 47 | 63 | 0.0 | 0.0 | 0.00 | 0.00 | 0.00 | 92 | 1025.4 |
| 20260509125604 | 46 | 63 | 0.0 | 0.0 | 0.00 | 0.00 | 0.00 | 92 | 1025.4 |
| 20260509125105 | 46 | 63 | 0.0 | 0.0 | 0.00 | 0.00 | 0.00 | 93 | 1025.4 |
| 20260509124604 | 46 | 63 | 0.0 | 0.0 | 0.00 | 0.00 | 0.00 | 93 | 1025.4 |
| 20260509124104 | 46 | 63 | 0.0 | 0.0 | 0.00 | 0.00 | 0.00 | 93 | 1025.4 |
| 20260509122604 | 46 | 63 | 0.0 | 0.0 | 0.00 | 0.00 | 0.00 | 94 | 1025.5 |
| 20260509122104 | 46 | 63 | 0.0 | 0.0 | 0.00 | 0.00 | 0.00 | 94 | 1025.6 |
| 20260509121604 | 46 | 63 | 0.0 | 0.0 | 0.00 | 0.00 | 0.00 | 94 | 1025.6 |
| 20260509121104 | 46 | 63 | 0.0 | 0.0 | 0.00 | 0.00 | 0.00 | 93 | 1025.6 |
| 20260509120604 | 46 | 63 | 0.0 | 0.0 | 0.00 | 0.00 | 0.00 | 93 | 1025.7 |
| 20260509120104 | 46 | 63 | 0.0 | 0.0 | 0.00 | 0.00 | 0.00 | 93 | 1025.7 |
| 20260509115604 | 46 | 63 | 0.0 | 0.0 | 0.00 | 0.00 | 0.00 | 93 | 1025.7 |
| 20260509114604 | 46 | 62 | 0.0 | 0.0 | 0.00 | 0.00 | 0.00 | 93 | 1025.7 |
| 20260509114104 | 46 | 63 | 0.0 | 0.0 | 0.00 | 0.00 | 0.00 | 93 | 1025.7 |
| 20260509113604 | 46 | 63 | 0.0 | 0.0 | 0.00 | 0.00 | 0.00 | 92 | 1025.7 |
| 20260509113104 | 46 | 62 | 0.0 | 0.0 | 0.00 | 0.00 | 0.00 | 92 | 1025.6 |
| 20260509112104 | 46 | 63 | 0.0 | 0.0 | 0.00 | 0.00 | 0.00 | 92 | 1025.5 |
| 20260509111104 | 46 | 63 | 0.0 | 0.0 | 0.00 | 0.00 | 0.00 | 92 | 1025.5 |
| 20260509110604 | 46 | 63 | 0.0 | 0.0 | 0.00 | 0.00 | 0.00 | 91 | 1025.5 |
| 20260509110104 | 46 | 63 | 0.0 | 0.0 | 0.00 | 0.00 | 0.00 | 91 | 1025.5 |
| 20260509105604 | 46 | 63 | 0.0 | 0.0 | 0.00 | 0.00 | 0.00 | 91 | 1025.4 |
| 20260509104604 | 47 | 63 | 0.0 | 0.0 | 0.00 | 0.00 | 0.00 | 91 | 1025.5 |
| 20260509104108 | 46 | 63 | 0.0 | 0.0 | 0.00 | 0.00 | 0.00 | 90 | 1025.5 |
| 20260509103604 | 47 | 63 | 0.0 | 0.0 | 0.00 | 0.00 | 0.00 | 90 | 1025.5 |
| 20260509103104 | 47 | 63 | 0.0 | 0.0 | 0.00 | 0.00 | 0.00 | 90 | 1025.4 |
| 20260509102604 | 47 | 64 | 0.0 | 0.9 | 0.00 | 0.00 | 0.00 | 89 | 1025.4 |
| 20260509102104 | 47 | 63 | 0.0 | 1.7 | 0.00 | 0.00 | 0.00 | 89 | 1025.3 |
| 20260509101104 | 47 | 63 | 0.0 | 0.0 | 0.00 | 0.00 | 0.00 | 87 | 1025.3 |
| 20260509100604 | 48 | 63 | 0.0 | 0.0 | 0.00 | 0.00 | 0.00 | 86 | 1025.3 |
| 20260509100104 | 48 | 64 | 0.0 | 0.0 | 0.00 | 0.00 | 0.00 | 85 | 1025.2 |
| 20260509095604 | 49 | 63 | 0.0 | 0.0 | 0.00 | 0.00 | 0.00 | 85 | 1025.2 |
| 20260509095104 | 49 | 64 | 0.0 | 0.0 | 0.00 | 0.00 | 0.00 | 85 | 1025.1 |
| 20260509094604 | 49 | 65 | 0.0 | 0.0 | 0.00 | 0.00 | 0.00 | 85 | 1025.1 |
| 20260509094104 | 49 | 65 | 0.0 | 0.0 | 0.00 | 0.00 | 0.00 | 84 | 1025.0 |
| 20260509093604 | 49 | 65 | 0.0 | 0.0 | 0.00 | 0.00 | 0.00 | 84 | 1025.0 |
| 20260509093104 | 49 | 67 | 0.0 | 0.0 | 0.00 | 0.00 | 0.00 | 84 | 1025.0 |
| 20260509092604 | 49 | 67 | 0.0 | 0.0 | 0.00 | 0.00 | 0.00 | 84 | 1024.9 |
| 20260509092104 | 49 | 68 | 0.0 | 0.0 | 0.00 | 0.00 | 0.00 | 84 | 1025.0 |
| 20260509091104 | 49 | 68 | 0.0 | 0.0 | 0.00 | 0.00 | 0.00 | 85 | 1024.9 |
| 20260509090604 | 49 | 68 | 0.0 | 0.0 | 0.00 | 0.00 | 0.00 | 86 | 1024.9 |
| 20260509090104 | 49 | 68 | 0.0 | 0.0 | 0.00 | 0.00 | 0.00 | 86 | 1024.8 |
| 20260509085604 | 49 | 68 | 0.0 | 0.0 | 0.00 | 0.00 | 0.00 | 86 | 1024.8 |
| 20260509085104 | 49 | 68 | 0.0 | 0.0 | 0.00 | 0.00 | 0.00 | 86 | 1024.8 |
| 20260509084604 | 49 | 68 | 0.0 | 0.0 | 0.00 | 0.00 | 0.00 | 86 | 1024.7 |
| 20260509084104 | 49 | 68 | 0.0 | 0.0 | 0.00 | 0.00 | 0.00 | 86 | 1024.7 |
| 20260509083604 | 49 | 68 | 0.0 | 0.0 | 0.00 | 0.00 | 0.00 | 86 | 1024.6 |
| 20260509083104 | 49 | 69 | 0.0 | 0.0 | 0.00 | 0.00 | 0.00 | 86 | 1024.6 |
| 20260509082604 | 49 | 69 | 0.0 | 0.0 | 0.00 | 0.00 | 0.00 | 86 | 1024.6 |
| 20260509082104 | 49 | 69 | 0.0 | 0.0 | 0.00 | 0.00 | 0.00 | 86 | 1024.5 |
| 20260509081604 | 49 | 69 | 0.0 | 0.0 | 0.00 | 0.00 | 0.00 | 86 | 1024.4 |
| 20260509081104 | 49 | 69 | 0.0 | 0.0 | 0.00 | 0.00 | 0.00 | 86 | 1024.3 |
| 20260509080604 | 49 | 69 | 0.0 | 0.0 | 0.00 | 0.00 | 0.00 | 86 | 1024.2 |
| 20260509080104 | 49 | 69 | 0.0 | 0.0 | 0.00 | 0.00 | 0.00 | 86 | 1024.2 |
| 20260509075604 | 50 | 69 | 0.0 | 0.0 | 0.00 | 0.00 | 0.00 | 86 | 1024.1 |
| 20260509075105 | 50 | 69 | 0.0 | 0.0 | 0.00 | 0.00 | 0.00 | 85 | 1024.0 |
| 20260509074604 | 50 | 69 | 0.0 | 0.0 | 0.00 | 0.00 | 0.00 | 85 | 1023.9 |
| 20260509073604 | 50 | 69 | 0.0 | 0.0 | 0.00 | 0.00 | 0.00 | 84 | 1023.9 |
| 20260509073104 | 51 | 69 | 0.0 | 0.0 | 0.00 | 0.00 | 0.00 | 84 | 1023.8 |
| 20260509072604 | 51 | 69 | 0.0 | 0.0 | 0.00 | 0.00 | 0.00 | 84 | 1023.8 |
| 20260509072104 | 51 | 69 | 0.0 | 1.7 | 0.00 | 0.00 | 0.00 | 83 | 1023.8 |
| 20260509071604 | 51 | 69 | 0.0 | 1.7 | 0.00 | 0.00 | 0.00 | 83 | 1023.7 |
| 20260509070604 | 52 | 69 | 0.9 | 1.7 | 0.00 | 0.00 | 0.00 | 82 | 1023.6 |
| 20260509070104 | 53 | 69 | 0.9 | 2.6 | 0.00 | 0.00 | 0.00 | 82 | 1023.6 |
| 20260509065604 | 53 | 69 | 0.9 | 2.6 | 0.00 | 0.00 | 0.00 | 81 | 1023.5 |
| 20260509065104 | 53 | 69 | 0.9 | 4.3 | 0.00 | 0.00 | 0.00 | 81 | 1023.5 |
| 20260509064604 | 54 | 68 | 1.7 | 4.3 | 0.00 | 0.00 | 0.00 | 81 | 1023.5 |
| 20260509063604 | 54 | 62 | 1.7 | 4.3 | 0.00 | 0.00 | 0.00 | 80 | 1023.4 |
| 20260509063104 | 55 | 70 | 1.7 | 4.3 | 0.00 | 0.00 | 0.00 | 79 | 1023.4 |
| 20260509062604 | 55 | 70 | 2.6 | 4.3 | 0.00 | 0.00 | 0.00 | 79 | 1023.4 |
| 20260509061604 | 55 | 66 | 2.6 | 6.1 | 0.00 | 0.00 | 0.00 | 78 | 1023.3 |
| 20260509061104 | 55 | 75 | 3.5 | 6.1 | 0.00 | 0.00 | 0.00 | 77 | 1023.2 |
| 20260509060604 | 55 | 75 | 1.7 | 7.0 | 0.00 | 0.00 | 0.00 | 77 | 1023.2 |
| 20260509055604 | 56 | 61 | 1.7 | 7.0 | 0.00 | 0.00 | 0.00 | 76 | 1023.0 |
| 20260509055104 | 56 | 71 | 0.9 | 7.0 | 0.00 | 0.00 | 0.00 | 76 | 1023.0 |
| 20260509054604 | 57 | 63 | 2.6 | 7.0 | 0.00 | 0.00 | 0.00 | 75 | 1023.0 |
| 20260509054104 | 57 | 58 | 2.6 | 6.1 | 0.00 | 0.00 | 0.00 | 75 | 1022.9 |
| 20260509053604 | 57 | 81 | 1.7 | 4.3 | 0.00 | 0.00 | 0.00 | 74 | 1022.9 |
| 20260509053104 | 57 | 80 | 2.6 | 4.3 | 0.00 | 0.00 | 0.00 | 74 | 1022.9 |
| 20260509052104 | 58 | 75 | 2.6 | 7.0 | 0.00 | 0.00 | 0.00 | 72 | 1022.8 |
| 20260509051604 | 58 | 73 | 3.5 | 7.0 | 0.00 | 0.00 | 0.00 | 70 | 1022.8 |
| 20260509050604 | 59 | 59 | 1.7 | 7.0 | 0.00 | 0.00 | 0.00 | 65 | 1022.8 |
| 20260509050104 | 60 | 67 | 1.7 | 2.6 | 0.00 | 0.00 | 0.00 | 65 | 1022.8 |
| 20260509045604 | 61 | 214 | 0.9 | 2.6 | 0.00 | 0.00 | 0.00 | 63 | 1022.8 |